This is the latest recevied weather packets stored in our database for station/object NQ9F. If no packets are shown the sender has not sent any weather packets the latest 10 day(s).
| Time | Temp. | Humidity | Pressure | Rain* | Wind** | Luminosity | Snow |
|---|---|---|---|---|---|---|---|
| 1777825653 | 22.78° C | 48% | 1021.5 hPa | 0 mm | - | 828 W/m² | - |
| 1777825351 | 22.78° C | 48% | 1021.5 hPa | 0 mm | - | 820 W/m² | - |
| 1777825047 | 22.78° C | 50% | 1021.3 hPa | 0 mm | - | 806 W/m² | - |
| 1777824743 | 22.22° C | 50% | 1021.4 hPa | 0 mm | - | 794 W/m² | - |
| 1777824441 | 22.22° C | 50% | 1021.5 hPa | 0 mm | - | 781 W/m² | - |
| 1777824136 | 22.22° C | 49% | 1021.4 hPa | 0 mm | - | 766 W/m² | - |
| 1777823833 | 22.22° C | 51% | 1021.6 hPa | 0 mm | - | 749 W/m² | - |
| 1777823531 | 22.22° C | 50% | 1021.4 hPa | 0 mm | - | 731 W/m² | - |
| 1777823227 | 22.22° C | 51% | 1021.8 hPa | 0 mm | - | 718 W/m² | - |
| 1777822925 | 21.67° C | 50% | 1021.5 hPa | 0 mm | - | 703 W/m² | - |
| 1777822623 | 21.67° C | 51% | 1021.4 hPa | 0 mm | - | 683 W/m² | - |
| 1777822320 | 21.67° C | 51% | 1021.8 hPa | 0 mm | - | 664 W/m² | - |
| 1777822018 | 21.67° C | 51% | 1021.7 hPa | 0 mm | - | 648 W/m² | - |
| 1777821715 | 21.11° C | 51% | 1021.6 hPa | 0 mm | - | 629 W/m² | - |
| 1777821413 | 21.11° C | 52% | 1021.4 hPa | 0 mm | - | 607 W/m² | - |
| 1777821109 | 21.11° C | 54% | 1021.4 hPa | 0 mm | - | 591 W/m² | - |
| 1777820807 | 20.56° C | 54% | 1021.5 hPa | 0 mm | - | 568 W/m² | - |
| 1777820503 | 20.56° C | 52% | 1021.5 hPa | 0 mm | - | 546 W/m² | - |
| 1777820200 | 20.56° C | 54% | 1021.4 hPa | 0 mm | - | 525 W/m² | - |
| 1777819897 | 20.56° C | 53% | 1021.5 hPa | 0 mm | - | 506 W/m² | - |
| 1777819594 | 20.56° C | 53% | 1021.3 hPa | 0 mm | - | 482 W/m² | - |
| 1777819292 | 20.56° C | 54% | 1021.5 hPa | 0 mm | - | 456 W/m² | - |
| 1777818988 | 20° C | 54% | 1021.2 hPa | 0 mm | - | 430 W/m² | - |
| 1777818685 | 20° C | 54% | 1021.3 hPa | 0 mm | - | 412 W/m² | - |
| 1777818382 | 20° C | 57% | 1021.5 hPa | 0 mm | - | 387 W/m² | - |
* Rain latest hour (hover to see other rain measurements)
** Current wind speed in m/s (hover to see current wind gust speed)